Regional Weather Roundup
Issued by NWS Bismarck, ND

Home | Current Version | Previous Version | Text Only | Print | Product List | Glossary On
Versions: 1 2 3 4 5 6 7 8 9 10 11 12 13 14 15 16 17 18 19 20 21 22 23 24 25 26 27 28 29 30 31 32 33 34 35 36 37 38 39 40 41 42 43 44 45 46 47 48 49 50
000
ASUS43 KBIS 200010
RWRBIS

NWR BROADCAST TEXT
NATIONAL WEATHER SERVICE BISMARCK ND
700 PM CDT FRI SEP 19 2014

NOTE: "FAIR" INDICATES FEW OR NO CLOUDS BELOW 12,000 FEET WITH NO
SIGNIFICANT WEATHER AND/OR OBSTRUCTIONS TO VISIBILITY.


CITY           SKY/WX    TMP DP  RH WIND       PRES   REMARKS
WILLISTON      CLEAR     72  50  45 NW14      29.76R
MINOT          PTCLDY    69  55  60 NW16      29.69R
MINOT AFB      PTCLDY    79  50  36 W20G30    29.56R
BISMARCK       CLOUDY    77  51  40 W14       29.69R
DICKINSON      CLOUDY    72  48  42 W14       29.77R
GARRISON         N/A     74  55  51 NW17G23   29.70R
HETTINGER ARPT CLOUDY    71  49  45 W10       29.82R
JAMESTOWN      MOCLDY    74  53  48 W7        29.62R
BEACH            N/A     72  45  37 NW20      29.82S
CARRINGTON     FAIR      75  54  46 NW18G28   29.62R
CROSBY         FAIR      68  55  64 NW10      29.75R
HARVEY         FAIR      73  55  53 NW20G25   29.63R
HAZEN          FAIR      72  52  49 NW13G18   29.72R
LINTON         FAIR      77  50  38 NW16G22   29.71R
MANDAN         FAIR      73  50  43 W15       29.71R
OAKES            N/A     77  59  53 SW8       29.64R
RUGBY          FAIR      68  59  73 NW14G23   29.65R
STANLEY        FAIR      68  52  56 NW12G21   29.74R
TIOGA          FAIR      68  52  56 NW17G23   29.79R
WATFORD CITY   FAIR      72  48  43 NW10      29.75R
$$

CITY           SKY/WX    TMP DP  RH WIND       PRES   REMARKS
GRAND FORKS    PTCLDY    78  55  44 W6        29.49F
GRAND FORKS AF PTCLDY    76  57  51 W7        29.51S
DEVILS LAKE    CLEAR     75  54  46 NW13      29.57R
FARGO          PTCLDY    77  66  68 S12       29.56R
CANDO          FAIR      70  57  64 NW14      29.61R
CAVALIER       FAIR      66  59  77 N18G26    29.55R
GRAFTON        FAIR      77  54  44 NW20      29.49R
GWINNER        CLEAR     77  57  50 W6        29.64R
LANGDON        FAIR      66  59  77 N15G22    29.59R
ROLLA          FAIR      66  55  68 NW14G20   29.65R
WALHALLA         N/A     64  59  82 N16G23    29.57R
$$

CITY           SKY/WX    TMP DP  RH WIND       PRES   REMARKS
ABERDEEN       CLEAR     77  60  55 W6        29.67R
MOBRIDGE       CLEAR     78  52  40 NW10      29.71R
BUFFALO          N/A     75  46  35 NW17      29.81R
RAPID CITY     CLOUDY    78  49  35 N10       29.86R
GLASGOW        MOSUNNY   73  51  46 NW10      29.79R
SIDNEY         PTCLDY    73  50  43 NW7       29.79R
WOLF POINT     MOSUNNY   75  52  44 W9        29.77S
GLENDIVE       PTCLDY    73  46  38 NW15G22   29.82S
MILES CITY     MOSUNNY   75  45  34 W21       29.85R
BAKER          PTCLDY    74  46  36 NW13G24   29.85R
$$

CITY           SKY/WX    TMP DP  RH WIND       PRES   REMARKS
BILLINGS       PTSUNNY   74  42  31 NW9       29.94R
GREAT FALLS    SUNNY     71  41  33 W25       29.95R
REGINA         PTCLDY    66  52  59 NW9       29.73R
ESTEVAN        PTCLDY    68  54  60 NW9       29.73R
$$




USA.gov is the U.S. government's official web portal to all federal, state and local government web resources and services.